SPOT 7                  
1 40053U 14034A   19257.77037762 -.00000066  00000-0 -43539-5 0  9990
2 40053  98.2201 323.5022 0001430  85.2619 274.8738 14.58536654277341
AISAT                   
1 40054U 14034B   19257.92886710  .00000271  00000-0  45310-4 0  9997
2 40054  98.2424  22.1800 0011607 300.2850  59.7211 14.77831378280767
CANX-4                  
1 40055U 14034C   19257.92689339  .00000047  00000-0  15044-4 0  9998
2 40055  98.2265  15.0661 0013459 329.5964  30.4462 14.74860994280345
CANX-5                  
1 40056U 14034D   19257.92787629  .00000048  00000-0  15153-4 0  9992
2 40056  98.2265  15.0638 0013476 329.7902  30.2528 14.74851010271152
VELOX-I                 
1 40057U 14034E   19257.90844663  .00000164  00000-0  30549-4 0  9998
2 40057  98.2452  22.9497 0009945 316.0973  43.9447 14.77704364280797
PSLV R/B                
1 40058U 14034F   19257.87168920  .00000025  00000-0  10887-4 0  9999
2 40058  98.1408   9.6609 0022104 352.2307   7.8558 14.78613813281017